Theta_e
307 307 306 306 306 306 305 306 306 306 306 305 305 305 305 305 305 305 305 305 305 305 305 305 305 305 306 305 305 305 305 305 306 306 306 305 305 305 306 308 309 309 310 309 309 309 309 309 310 310 311 311 311 310 309 309 309 310 313 312 312 312 310 309 308 307 306 305 304 303 302 306 305 301 301 301 301 300 300 301 301 301 301 301 300 299 298 298
308 307 307 307 307 307 306 306 306 306 306 305 305 305 305 305 306 306 305 306 306 306 306 306 306 306 306 306 307 306 306 306 306 306 306 305 305 305 306 308 309 309 309 309 309 309 309 310 309 309 309 309 308 308 308 307 308 310 311 312 312 310 307 305 306 305 303 304 305 303 302 304 304 302 300 301 302 300 300 302 301 301 301 302 301 300 299 298
308 308 307 307 307 307 307 307 307 306 306 306 306 306 306 305 306 306 306 307 306 306 307 306 306 306 306 307 307 307 307 306 306 306 305 305 306 306 306 307 308 309 309 309 309 309 310 310 309 309 309 308 307 307 307 306 307 306 309 312 310 306 304 302 303 302 301 303 304 303 302 302 303 301 300 301 302 301 301 303 302 301 302 302 302 301 300 299
307 308 307 307 307 307 306 306 306 306 306 306 306 306 306 306 306 306 306 307 307 306 307 306 306 306 307 307 308 308 308 308 306 305 305 306 306 306 306 307 308 308 309 309 309 309 310 310 309 308 309 308 306 306 306 305 305 305 307 309 306 303 304 301 300 301 300 302 303 303 301 301 302 300 300 301 302 302 303 303 303 302 302 303 302 301 300 299
307 307 307 307 306 306 307 306 306 306 306 306 306 306 306 306 306 306 307 307 306 306 307 307 307 307 307 307 308 308 309 309 306 305 306 306 306 306 306 306 307 308 308 308 309 310 310 310 309 308 308 308 307 307 305 302 304 305 303 303 302 302 303 301 299 300 300 301 302 302 302 302 301 299 300 300 302 304 305 303 302 302 302 302 302 301 301 299
307 307 307 307 307 307 307 307 307 307 307 307 306 306 306 306 306 306 307 307 306 306 306 307 307 307 307 307 308 308 309 308 306 305 306 306 306 306 306 306 306 307 308 308 309 309 310 310 309 307 307 307 306 306 304 301 304 306 302 300 300 300 301 300 299 300 300 301 302 302 302 300 300 300 300 299 301 303 304 302 302 302 302 302 302 301 301 300
307 307 307 307 307 307 307 307 307 307 308 307 307 306 306 306 306 306 306 307 306 306 306 307 307 307 308 307 307 307 307 306 304 305 305 306 306 306 307 307 307 307 308 309 309 309 309 309 308 306 307 307 305 305 303 301 304 307 304 300 299 299 300 300 299 300 300 300 301 300 300 300 300 301 299 299 301 301 302 302 301 301 301 301 301 301 301 300
307 307 307 307 307 307 307 307 307 307 307 307 307 306 306 306 306 306 306 306 306 306 306 307 307 307 308 308 307 307 306 304 304 305 305 306 306 306 307 307 307 307 307 308 309 309 309 309 308 306 308 307 305 305 303 303 305 306 304 300 299 299 299 299 299 300 299 299 300 299 300 300 300 300 298 299 301 301 300 301 301 301 301 301 301 301 301 301
307 307 307 307 307 307 307 307 307 307 307 306 306 306 306 306 306 306 306 306 306 306 306 307 307 307 308 307 307 307 305 304 305 305 305 305 306 306 307 307 307 307 307 308 308 309 309 309 308 307 308 305 305 306 303 306 307 303 302 300 300 299 298 299 299 299 299 299 299 299 301 300 299 298 299 301 301 301 300 300 300 300 300 300 301 301 301 301
307 307 307 307 306 307 307 307 307 307 306 306 306 306 306 306 306 306 306 306 306 306 307 307 307 307 307 307 307 307 304 304 305 305 305 305 306 306 307 307 307 307 308 308 308 309 308 308 307 306 307 305 304 304 302 305 304 300 300 300 300 300 299 299 299 299 299 299 299 299 301 300 298 298 301 303 301 301 301 300 300 300 300 300 300 301 301 301
307 307 307 307 307 307 307 307 307 306 305 305 305 306 306 306 305 306 306 306 306 306 307 307 306 307 307 307 307 306 304 304 305 305 305 305 306 307 307 307 307 307 307 308 308 308 307 307 307 306 307 306 304 303 301 301 301 299 300 301 301 300 299 299 299 299 299 300 299 298 300 299 296 297 301 302 301 301 300 300 300 300 300 300 300 300 301 301
307 307 307 307 307 307 308 307 306 305 305 305 305 306 307 306 305 306 306 306 306 306 307 306 307 307 307 307 306 305 304 304 305 305 305 305 306 306 306 307 306 307 307 307 307 307 307 306 306 307 307 305 305 304 302 299 300 300 301 304 303 301 301 300 299 299 299 300 299 298 301 301 297 299 303 302 301 300 299 299 299 299 300 300 300 300 301 301
307 306 307 307 307 307 307 306 305 305 305 305 305 305 306 307 306 306 306 306 307 306 306 306 306 307 307 306 304 304 304 304 305 305 305 305 306 306 306 306 306 306 306 307 307 306 307 307 306 306 305 305 304 304 302 299 301 302 302 304 304 305 304 300 298 298 298 300 298 299 305 306 301 301 303 302 301 300 300 300 300 300 300 300 300 300 301 301
307 306 306 307 306 307 306 305 305 305 305 306 305 305 306 306 305 306 306 306 307 306 306 306 307 308 307 305 304 304 304 304 305 305 305 306 306 306 306 306 307 307 306 306 306 306 306 306 306 306 304 304 303 302 303 302 302 304 304 304 304 307 307 300 298 299 299 300 298 300 305 308 305 304 302 301 301 300 299 300 300 300 300 300 300 300 300 300
307 306 306 306 305 306 305 305 305 305 306 306 305 305 305 305 305 306 306 306 307 307 306 307 307 308 306 305 304 305 304 304 305 305 305 306 306 307 306 306 306 306 307 306 306 305 305 305 306 305 303 302 303 304 305 304 303 303 306 308 305 306 307 302 299 299 300 299 298 301 305 307 307 305 302 301 301 300 299 300 300 301 301 300 300 300 300 300
306 306 305 305 305 305 305 305 305 305 306 305 305 306 306 305 305 306 306 306 307 307 307 307 306 307 307 306 305 305 305 304 305 305 306 306 306 307 307 306 306 306 306 306 305 305 305 305 304 303 302 303 305 306 307 307 306 305 306 309 306 305 307 305 300 297 299 299 299 301 303 305 306 303 301 301 301 300 299 299 299 300 300 300 300 300 300 300
306 306 305 305 305 305 305 305 305 306 306 306 306 305 306 306 306 306 306 306 307 307 307 307 307 307 307 306 305 305 305 305 305 305 306 306 306 307 307 307 306 306 305 305 306 305 305 305 304 304 304 304 305 306 308 309 309 307 305 307 306 304 305 306 303 298 298 300 300 300 301 302 304 303 302 301 301 299 298 298 299 299 299 299 299 299 299 299
306 306 305 305 305 305 305 305 306 306 306 306 306 306 306 306 306 307 307 307 307 307 307 307 307 309 308 305 305 305 305 305 305 305 306 305 306 306 307 307 306 306 306 305 305 305 305 304 304 306 305 305 305 307 309 309 307 307 306 306 306 304 304 304 305 301 298 300 301 301 301 302 303 304 304 302 301 299 299 299 299 298 298 298 298 298 299 299
306 306 306 305 305 305 305 306 306 306 306 306 306 306 306 306 307 307 307 307 307 308 309 307 307 309 308 305 305 305 305 306 306 306 306 306 306 306 307 307 306 306 306 307 306 304 304 305 306 307 308 306 305 305 306 305 304 305 304 303 304 304 304 304 303 300 299 300 301 301 302 302 303 303 304 303 301 299 299 299 298 298 298 297 297 298 299 300
306 306 306 305 305 305 305 306 306 306 306 306 306 307 307 307 308 308 307 306 306 307 307 305 305 306 306 305 305 305 305 305 306 306 306 306 306 306 307 307 306 306 306 307 307 303 302 307 308 307 307 305 302 301 301 300 301 302 302 302 302 303 304 304 302 299 298 300 302 302 301 301 302 303 303 303 301 299 299 299 298 298 297 297 298 299 300 301
306 305 305 305 305 305 306 307 306 306 306 306 306 308 309 308 309 309 306 306 305 305 305 305 305 305 305 304 305 305 305 305 305 306 306 306 306 307 307 306 307 307 304 302 304 303 303 308 307 304 302 301 299 298 299 300 301 302 302 302 303 302 303 303 300 298 298 299 301 301 300 301 302 303 304 302 300 300 300 299 299 298 298 298 300 301 301 302
305 305 305 305 306 307 307 307 307 306 306 307 307 308 309 308 309 308 306 306 305 304 305 305 305 305 305 305 305 305 305 305 305 305 306 306 307 307 307 306 308 307 303 302 305 306 307 308 304 299 299 299 298 298 299 301 300 301 301 302 304 303 303 303 299 296 297 298 301 300 299 301 303 303 303 300 299 299 298 298 298 298 298 299 301 302 302 303
306 306 306 307 307 308 308 309 308 308 307 308 308 309 308 307 308 308 307 307 306 305 305 305 305 305 305 305 305 305 304 305 305 305 306 306 306 306 306 306 309 308 305 306 308 308 309 306 299 296 299 300 299 298 299 301 301 301 301 303 305 303 302 304 301 297 298 298 299 299 298 301 304 304 302 298 297 298 298 298 298 299 300 301 301 302 303 303
306 306 307 307 308 308 308 309 309 308 308 307 308 308 308 307 308 308 307 306 307 306 305 305 305 304 305 305 305 306 305 304 304 304 305 306 305 305 305 305 307 308 306 307 308 308 308 302 296 296 298 300 300 299 299 302 303 302 301 302 304 302 300 302 301 298 300 299 296 298 302 305 305 305 304 300 297 299 298 298 299 300 301 301 302 303 303 303
307 307 307 307 308 308 308 308 308 308 307 307 307 307 307 307 307 308 308 309 309 308 306 305 305 305 305 305 306 305 305 305 304 304 305 305 305 306 305 303 305 308 308 306 306 307 305 297 295 298 299 299 301 301 300 301 304 303 302 301 301 300 299 300 299 299 303 303 298 298 305 309 307 305 306 303 300 301 301 299 301 302 302 302 303 304 304 303
307 307 307 307 308 308 308 308 308 308 308 307 307 307 307 307 308 307 309 314 314 309 307 306 305 306 305 305 305 304 306 306 304 304 304 304 305 305 305 304 303 306 307 305 304 304 301 295 296 298 299 300 300 301 300 299 303 305 301 298 298 298 298 298 299 299 304 305 299 298 304 308 307 307 305 302 300 303 303 303 304 303 303 303 303 303 304 303
307 307 308 308 307 307 308 307 307 307 307 307 307 307 307 307 308 307 309 315 312 306 307 306 305 306 305 305 305 305 308 307 304 304 303 304 304 304 306 306 304 304 302 303 306 304 299 297 297 297 299 300 301 302 300 298 303 304 298 296 297 297 298 298 298 300 301 302 300 298 301 304 307 307 303 300 302 305 305 305 306 305 303 303 303 303 302 302
307 308 308 307 307 307 307 307 307 307 306 307 307 306 307 307 308 307 310 311 307 305 307 306 305 305 305 305 304 305 306 305 306 305 302 303 304 303 306 307 306 306 300 303 308 304 298 299 299 298 299 301 302 301 298 298 302 301 295 295 297 296 297 297 298 300 299 300 303 300 299 303 307 307 303 301 305 306 305 305 305 304 303 302 302 301 301 301
307 308 307 307 307 307 307 307 307 307 307 307 306 306 307 307 307 309 310 308 305 306 307 306 306 305 304 305 304 303 303 304 306 305 302 303 304 303 305 304 303 304 300 302 307 303 298 299 298 299 300 301 300 297 296 298 300 298 295 295 295 295 296 297 298 300 298 301 306 301 299 303 308 308 306 304 305 304 304 304 304 303 302 301 301 301 300 301
307 308 307 307 307 307 307 307 307 307 307 306 306 307 306 307 309 310 310 307 307 307 305 306 306 304 304 307 306 303 303 303 303 303 302 302 303 302 303 302 301 303 302 301 303 301 297 298 298 299 300 299 297 295 294 296 296 296 296 297 298 297 296 297 298 298 300 304 304 299 298 301 306 308 306 305 303 302 302 302 303 302 302 301 301 300 300 300
307 307 307 307 307 307 307 307 307 307 306 306 307 306 307 310 312 311 308 307 308 308 306 307 305 304 306 307 306 305 304 303 301 303 304 302 303 303 302 303 303 304 304 304 303 300 297 299 300 299 298 296 297 297 295 294 295 296 298 300 302 301 299 299 299 299 304 307 301 297 297 299 304 307 306 305 303 301 301 301 301 301 301 301 300 300 299 299
307 307 307 307 307 307 307 307 307 306 305 307 306 307 310 311 311 310 308 307 308 308 307 307 304 304 305 304 303 303 303 303 301 302 304 301 303 304 302 304 305 305 308 307 305 304 302 300 298 297 297 296 298 300 299 297 297 299 301 302 305 306 304 305 305 304 306 305 298 296 297 299 303 305 305 304 303 301 300 300 300 300 300 300 299 299 299 298
307 307 307 307 307 307 307 307 307 305 306 307 306 309 313 313 310 309 309 308 306 305 304 304 303 302 302 304 303 300 301 303 302 302 301 300 303 302 299 298 300 304 306 305 305 306 305 301 297 298 299 296 298 302 303 302 300 301 302 303 305 306 306 306 307 306 306 303 296 295 297 301 304 304 303 303 302 301 300 299 299 299 299 299 298 298 298 298
307 307 307 307 307 307 307 306 306 306 306 305 307 310 311 311 310 307 309 309 305 302 302 302 302 301 301 303 301 298 301 303 301 301 302 302 304 304 301 299 298 301 303 303 304 304 306 305 301 299 299 296 297 298 300 300 300 299 298 300 304 304 305 306 306 306 307 303 298 296 298 303 305 303 301 301 301 300 299 299 299 299 299 298 298 298 298 298
306 306 306 306 306 306 306 306 306 306 305 306 312 313 310 312 310 307 310 308 304 304 303 299 300 303 303 301 299 298 301 302 300 301 302 302 304 304 302 300 298 299 302 305 304 302 305 306 299 296 295 295 296 295 294 298 300 298 296 299 303 302 303 304 303 301 301 301 299 298 300 303 304 302 300 301 301 300 300 300 299 300 299 298 298 298 298 298
306 306 306 306 306 306 306 306 306 306 305 309 315 313 312 313 308 306 307 305 304 305 304 302 302 305 306 303 301 300 299 300 301 302 302 301 302 302 301 299 297 298 301 304 305 303 305 305 297 294 295 293 294 295 293 297 301 299 298 301 299 296 300 303 301 297 296 300 302 300 301 303 303 303 302 301 302 301 300 300 299 300 299 298 298 298 298 297
306 306 306 306 306 306 306 306 306 306 305 309 313 311 310 308 302 303 304 302 302 301 303 307 305 304 306 304 304 303 300 301 301 303 304 302 302 301 300 298 295 296 297 300 303 302 303 304 298 295 297 295 292 294 294 294 297 299 300 300 296 295 298 300 300 300 300 303 303 301 303 303 303 304 303 302 302 300 299 299 299 299 298 298 298 297 297 297
305 305 305 306 306 306 306 306 306 306 306 309 313 311 307 304 300 300 301 300 301 300 302 307 304 302 304 305 305 302 301 303 303 303 304 304 302 300 300 299 296 295 295 296 301 301 301 305 301 294 296 296 293 295 297 295 294 297 298 296 297 300 301 300 301 303 303 304 303 303 303 302 301 303 303 301 300 299 298 298 299 298 298 297 297 297 297 296
305 305 305 306 306 305 306 306 305 306 307 310 315 311 304 303 300 299 301 301 300 301 303 305 302 302 303 303 305 302 301 303 303 302 303 303 303 300 298 298 297 295 294 295 300 300 300 304 303 296 294 296 296 297 301 299 295 295 296 296 296 298 300 300 299 300 302 303 303 303 303 302 302 302 301 300 299 298 298 298 298 298 297 297 297 297 296 296
305 305 305 306 306 305 306 305 306 309 310 309 312 308 302 302 301 299 302 301 299 301 303 302 301 303 302 301 302 301 300 300 300 302 302 301 302 301 297 296 297 296 295 294 297 299 300 302 303 300 295 297 300 299 300 301 299 297 298 298 297 296 297 298 298 298 300 302 303 302 303 303 302 301 300 300 298 298 298 297 297 297 297 296 296 296 296 295
304 306 306 305 306 305 305 306 305 307 310 308 305 304 302 302 301 299 301 301 299 300 300 301 301 302 302 302 301 300 300 300 299 300 301 301 302 301 297 294 295 295 296 297 298 298 300 301 302 302 300 302 301 296 294 297 298 299 300 300 300 298 298 299 300 297 296 298 300 299 301 302 301 300 299 298 298 298 298 297 297 297 296 296 296 295 295 295
305 307 307 305 306 305 306 309 303 300 307 307 303 302 303 302 300 300 301 301 300 299 299 300 300 300 301 301 300 299 300 301 300 300 301 300 300 300 297 293 293 294 296 298 298 296 297 299 300 302 302 301 296 292 291 293 294 296 297 297 298 298 299 301 302 299 296 296 296 296 297 300 300 300 299 299 299 298 297 297 296 296 295 296 295 295 295 294
305 306 305 304 306 305 306 309 304 303 306 304 300 301 302 301 300 299 300 300 300 299 300 301 300 300 300 299 299 299 300 301 301 300 301 299 298 297 295 294 293 293 295 297 297 295 297 299 300 302 302 298 293 292 292 291 293 296 296 295 295 297 298 298 298 296 296 297 297 297 298 300 300 300 300 300 299 297 297 296 295 295 295 295 295 294 294 294
305 305 304 304 305 305 308 309 308 309 308 302 300 301 301 299 299 299 300 300 300 299 301 301 299 300 300 298 298 299 300 302 302 300 299 299 298 296 294 294 293 294 295 297 297 296 299 300 300 302 303 301 299 298 297 294 295 297 297 293 293 296 297 295 293 293 296 298 298 299 300 301 300 301 300 299 298 297 296 295 295 295 295 294 295 294 293 293
305 305 304 304 305 306 308 308 307 311 311 307 304 302 301 301 299 299 300 299 299 299 300 300 298 299 298 297 298 299 298 300 301 299 298 298 297 294 293 294 293 293 295 295 294 295 298 300 300 301 303 303 304 303 302 300 298 297 296 294 293 294 296 296 295 295 297 297 296 298 300 300 300 300 299 298 297 296 295 295 295 294 294 294 294 292 292 293
305 306 306 305 305 304 305 304 304 308 311 309 305 302 302 303 300 298 299 300 299 298 299 299 298 298 298 298 300 300 299 298 299 298 299 300 298 294 293 295 294 293 295 294 293 295 296 297 298 300 302 303 304 302 299 298 298 298 298 297 296 294 293 294 295 296 297 296 296 298 298 298 299 298 298 297 295 295 295 295 294 294 294 293 292 291 292 293
305 306 306 306 305 304 304 303 303 303 304 305 304 302 302 303 300 298 299 299 299 298 298 298 298 299 300 300 301 301 299 298 297 298 299 300 297 294 292 294 294 294 295 294 293 294 297 298 297 299 300 300 300 299 296 296 296 297 297 298 297 295 293 294 295 297 297 297 297 298 298 298 298 297 296 295 294 294 294 294 294 293 293 292 291 292 292 292
305 305 303 304 306 305 306 304 302 301 301 302 302 301 302 304 303 301 301 298 298 298 299 300 299 299 299 299 300 301 300 299 300 300 300 299 297 296 294 294 294 294 294 294 293 294 297 298 296 296 299 298 297 297 296 295 295 295 296 296 296 295 294 295 296 297 296 296 297 298 297 297 296 296 295 294 294 294 294 293 293 292 291 291 291 292 292 291
305 305 303 303 304 304 303 302 300 301 301 301 302 302 303 306 305 301 299 299 300 298 298 301 302 299 298 298 298 301 301 301 302 303 301 299 298 299 298 296 295 293 294 294 292 291 295 299 297 295 297 297 296 295 294 294 295 295 295 295 295 294 294 295 296 295 295 295 295 296 295 295 295 295 294 294 294 293 293 293 292 291 291 291 291 292 291 290
304 305 303 303 303 302 301 301 301 303 302 300 303 303 301 304 305 300 298 300 302 300 298 301 302 299 297 297 297 300 301 300 300 300 299 298 299 299 298 298 297 295 294 294 293 291 294 297 296 294 296 298 296 293 293 294 295 295 295 295 295 295 295 294 294 294 294 295 295 294 295 295 295 295 294 294 293 292 292 292 291 290 290 291 291 291 290 290
304 304 303 305 305 301 300 300 299 303 304 302 303 303 301 303 303 300 299 298 299 300 299 300 301 299 297 297 298 299 298 297 298 297 296 297 298 297 296 296 296 297 296 294 293 293 294 294 293 294 297 299 296 294 294 294 293 294 295 295 295 295 295 294 295 295 295 295 295 295 295 295 294 294 293 292 292 292 292 291 290 290 290 291 291 290 289 289
304 304 303 305 306 301 299 300 299 302 305 302 300 302 302 302 299 299 301 300 297 299 299 298 299 299 299 300 299 298 297 296 296 296 295 296 295 295 294 294 294 296 297 294 292 291 292 294 294 294 297 300 297 295 295 294 295 297 295 294 294 294 294 294 294 294 294 294 295 294 294 294 293 293 292 291 291 291 291 290 290 290 290 290 290 289 289 289
Wind_Speed
10 10 10 9 10 10 11 11 10 9 10 10 10 9 9 9 9 9 9 10 9 7 5 5 6 8 9 9 10 10 10 9 6 5 8 13 12 8 6 4 3 3 2 2 5 6 5 4 3 4 3 2 5 6 6 6 5 3 0 1 0 1 1 2 5 4 1 2 7 11 13 9 5 7 8 7 9 12 13 17 19 19 20 20 17 14 13 12
9 9 9 9 10 10 10 10 9 8 8 8 7 7 7 7 8 9 10 10 9 8 7 4 4 5 5 6 7 7 8 7 6 10 14 13 9 7 5 3 2 1 1 2 5 5 4 5 6 4 2 4 6 4 4 6 6 3 0 1 1 1 2 1 2 5 1 2 8 10 11 10 4 5 7 6 7 9 12 16 19 22 24 23 21 19 17 16
8 8 8 9 9 10 10 9 8 7 6 5 4 4 5 5 6 8 9 8 8 9 8 6 3 2 2 2 3 4 6 5 6 12 14 11 8 7 5 2 0 1 1 2 4 4 4 6 7 4 4 6 6 5 5 6 4 2 1 1 2 2 2 2 2 4 2 3 8 8 10 9 6 6 7 6 6 7 12 15 14 21 26 24 23 21 19 19
7 7 7 8 9 9 9 8 7 5 4 3 1 1 2 3 5 6 7 6 7 8 8 8 5 2 2 3 3 1 3 5 8 14 12 10 9 8 7 3 0 1 2 2 3 4 3 6 7 3 5 6 5 5 5 7 4 2 2 1 3 2 2 3 3 3 4 5 6 7 8 7 9 10 9 6 6 8 15 18 16 22 24 21 21 20 20 20
6 6 6 7 8 9 9 8 7 5 5 4 2 0 2 3 4 6 6 4 5 6 7 7 6 5 4 5 4 4 4 2 7 11 10 10 9 8 8 5 2 1 1 1 2 3 3 6 5 3 5 5 4 4 4 6 5 3 2 2 3 1 1 4 5 4 4 4 5 7 7 6 8 11 13 12 9 9 11 14 15 18 20 20 21 19 20 22
6 5 5 6 7 7 7 7 6 5 6 5 4 2 1 2 4 5 5 2 1 4 5 6 7 7 6 6 6 4 0 1 6 10 11 11 10 10 8 6 5 1 1 0 1 3 3 5 5 3 4 4 4 4 3 5 3 2 2 2 1 1 1 4 6 5 5 4 5 7 6 6 6 9 13 18 21 19 17 17 14 14 17 20 23 22 22 23
6 5 4 5 5 5 5 5 4 4 4 4 3 3 2 1 3 4 3 2 2 3 4 6 7 6 6 8 9 9 10 7 7 10 13 14 13 12 9 9 8 2 1 1 0 1 3 5 6 6 5 3 3 5 5 5 4 2 3 2 2 2 3 5 6 7 6 4 6 6 7 6 7 7 8 19 30 27 25 25 20 18 17 18 21 24 25 24
6 5 4 4 4 4 4 4 4 3 3 3 3 4 4 2 2 3 3 4 4 4 4 6 8 6 5 6 6 10 13 9 8 12 15 16 15 14 12 10 7 2 1 2 1 1 2 3 4 6 4 3 3 3 3 3 5 5 3 3 3 4 4 5 6 7 5 4 6 7 8 7 8 9 11 26 36 31 29 28 25 25 22 21 22 23 24 25
5 5 4 4 4 4 4 4 3 2 3 2 3 4 4 1 2 1 1 2 3 3 4 5 8 8 5 5 4 7 9 7 8 13 15 16 16 14 11 7 4 2 0 2 2 0 2 2 2 2 4 7 5 3 2 1 2 4 4 5 4 3 4 4 4 5 5 4 5 7 9 7 8 9 16 26 27 22 21 23 25 27 27 26 25 25 26 26
4 5 4 4 4 5 4 3 1 2 3 2 3 4 2 5 7 6 6 5 4 4 4 3 7 9 6 4 4 5 4 5 9 13 14 14 12 9 7 7 5 4 2 2 2 2 3 3 4 6 7 9 6 4 3 2 4 6 7 6 4 3 3 3 2 3 4 4 4 7 10 7 5 4 10 14 12 12 13 14 18 22 27 28 27 29 29 29
4 4 4 4 4 5 4 1 1 2 3 3 3 2 4 7 7 7 7 6 5 5 3 2 8 11 6 4 7 6 3 4 7 10 12 13 10 7 9 10 9 8 6 2 4 5 5 5 6 6 5 6 6 7 7 7 9 9 8 6 3 1 2 4 3 3 3 3 3 8 12 8 4 4 14 17 15 15 15 15 17 19 22 24 26 28 29 30
4 4 4 4 4 4 2 1 2 3 4 4 4 2 3 5 6 7 7 7 6 5 4 3 8 10 5 8 12 7 3 4 6 9 11 12 12 12 13 11 9 10 7 3 7 8 6 6 3 2 5 8 5 4 7 10 8 7 5 2 2 1 3 4 3 2 2 3 4 8 12 7 9 11 17 16 13 13 13 15 17 19 21 21 24 26 28 28
3 4 4 3 3 3 2 1 2 4 4 4 4 2 2 1 4 5 7 7 6 5 4 4 6 7 5 9 10 6 3 4 5 7 8 10 12 13 13 11 9 9 7 4 8 7 5 5 2 5 11 9 4 5 9 8 5 4 2 2 2 3 2 2 1 1 2 3 2 4 8 4 10 15 13 10 11 12 13 15 16 18 20 20 21 23 25 25
2 3 4 3 2 2 1 2 3 5 3 3 4 2 0 1 1 3 6 7 6 5 5 6 6 5 5 9 7 4 3 3 4 5 5 8 11 11 12 12 10 7 6 4 7 8 9 8 4 8 12 9 10 11 8 4 2 1 1 1 1 3 0 3 2 2 2 1 2 1 6 7 5 9 9 10 12 13 16 17 16 18 20 21 21 21 23 23
2 2 3 3 2 1 2 3 4 5 3 3 4 3 2 0 2 2 5 6 5 5 5 7 6 3 7 9 5 4 2 2 2 2 3 6 8 9 9 9 9 7 6 6 8 9 9 5 5 9 11 11 12 7 2 1 1 2 2 1 0 2 1 3 2 1 2 2 4 3 6 11 9 3 6 8 10 13 17 18 17 20 22 22 23 23 24 24
1 2 3 3 1 1 2 2 3 5 4 4 4 4 4 1 3 2 5 6 4 4 4 5 5 4 6 6 3 3 2 1 0 0 2 4 6 7 7 5 6 6 6 6 7 6 4 3 8 10 8 7 5 1 0 1 1 1 2 4 1 2 4 1 3 2 2 1 4 5 5 11 9 1 4 8 11 14 18 20 21 22 24 26 26 26 26 28
1 1 3 3 1 1 1 0 3 4 4 4 3 3 4 3 1 2 4 4 3 3 2 3 3 4 5 4 2 2 1 0 1 1 1 3 4 6 6 5 4 3 3 3 2 3 4 3 6 6 4 3 1 0 1 3 2 1 1 3 2 3 4 4 1 3 1 1 4 5 8 16 17 13 14 16 19 20 20 22 22 21 23 26 28 30 31 32
1 0 3 4 2 2 2 1 3 3 3 4 3 2 3 3 2 3 4 3 4 3 0 4 4 1 4 4 2 1 1 1 1 1 2 2 3 5 4 4 5 4 2 1 2 4 4 4 3 2 2 1 1 1 2 3 3 3 3 3 4 3 4 5 2 2 1 3 6 6 10 19 23 21 20 18 18 21 22 22 21 20 20 21 24 29 31 31
2 2 2 3 2 2 1 1 2 2 2 3 4 2 2 4 3 4 6 4 2 1 1 4 5 1 2 2 2 2 2 2 3 2 3 3 3 4 4 5 7 5 2 2 2 5 4 3 2 1 1 1 1 0 1 2 2 2 2 3 5 5 6 6 2 3 2 5 8 8 11 19 23 20 19 17 13 16 19 19 18 17 17 18 21 24 24 24
3 3 1 1 2 2 2 1 2 3 1 3 4 3 3 4 3 3 6 6 7 6 4 5 7 5 3 1 1 0 1 2 4 5 4 3 4 4 4 6 5 3 3 1 2 5 3 1 2 1 1 3 4 4 3 3 2 0 0 3 4 6 8 5 1 3 2 4 7 6 10 20 23 19 17 16 10 11 14 13 13 13 13 16 18 17 17 16
2 2 1 1 2 2 2 2 2 2 1 3 3 2 3 4 2 1 4 7 9 9 7 7 7 6 5 2 0 1 2 2 4 6 5 3 3 3 3 4 2 1 3 2 2 2 1 3 0 2 4 5 6 5 3 3 2 1 1 4 4 5 7 4 2 2 1 2 5 3 10 21 22 17 13 10 6 6 7 8 9 9 10 12 12 11 11 11
1 1 2 2 2 2 2 1 1 2 3 3 2 2 4 4 3 3 3 3 6 6 6 6 6 5 5 4 3 2 2 1 3 5 5 4 2 1 1 2 2 1 2 1 2 1 2 2 2 4 6 7 6 4 2 2 2 0 1 3 4 3 5 3 2 2 2 2 5 5 9 19 20 14 9 5 2 4 5 7 8 8 8 8 7 7 9 10
2 4 5 4 4 4 4 1 1 3 2 2 3 3 4 5 4 5 3 3 3 4 4 4 4 4 4 4 4 4 2 1 2 5 6 4 2 3 2 2 2 0 0 1 2 3 2 1 4 3 4 5 4 3 2 1 1 3 2 4 5 2 2 3 2 1 4 4 6 6 7 14 13 6 1 3 2 5 7 8 8 8 7 6 5 6 6 8
4 6 6 5 6 7 9 7 5 5 4 4 4 4 4 3 2 4 2 2 1 1 2 4 3 3 3 3 5 4 2 2 3 6 7 4 2 3 3 3 1 1 0 1 1 4 2 3 3 4 3 2 3 3 3 2 3 4 5 5 6 3 2 4 3 7 8 4 3 8 8 6 2 1 0 2 1 5 6 7 8 7 6 5 5 4 4 5
5 6 5 4 5 7 9 10 9 7 5 4 4 3 2 1 3 3 1 2 1 0 1 2 3 2 2 4 6 4 1 2 4 6 6 4 3 2 3 3 0 1 2 2 1 3 0 3 4 5 3 2 2 2 3 3 4 3 5 5 5 3 3 6 7 8 7 2 1 5 5 1 2 1 3 3 3 4 3 4 8 7 6 6 5 4 4 5
6 5 3 3 3 3 4 5 6 5 3 4 3 2 2 3 3 3 2 1 0 1 1 1 1 2 2 5 6 3 1 1 3 5 5 4 3 2 3 2 1 1 3 2 0 1 1 4 3 2 3 3 2 3 3 4 4 3 1 2 1 2 4 6 6 5 5 4 2 2 4 4 3 1 2 4 5 5 2 3 6 7 6 7 7 7 8 10
6 4 3 2 3 3 3 3 5 4 3 4 3 3 3 3 4 3 2 1 0 1 2 1 1 1 3 5 5 2 1 3 3 3 3 4 3 1 1 1 1 1 3 2 1 1 4 4 3 2 3 3 3 3 4 7 4 2 3 2 1 2 6 4 4 3 3 5 2 0 2 4 5 1 2 3 5 4 3 2 2 4 7 8 10 12 14 16
5 4 3 4 4 5 5 5 5 4 5 4 4 4 4 4 5 4 1 0 0 1 1 2 1 0 5 5 3 1 2 3 2 1 3 3 3 1 1 1 1 1 3 3 4 0 3 4 6 5 3 4 3 1 4 8 4 1 4 0 2 2 4 2 3 3 2 4 2 3 1 3 5 1 4 0 5 9 9 7 6 9 15 17 18 20 23 26
5 4 3 3 4 4 5 5 5 5 6 6 5 4 4 5 5 2 0 1 1 1 1 1 2 2 8 5 1 1 1 1 2 3 3 2 2 1 0 1 3 4 2 2 3 1 1 1 3 4 3 2 1 2 2 6 2 2 4 1 1 2 1 1 2 2 2 3 2 3 1 3 5 3 2 2 8 11 11 9 8 11 15 18 22 29 31 32
4 2 1 1 3 4 4 5 6 6 7 6 5 4 4 4 2 0 0 1 1 1 1 1 2 5 9 3 1 2 1 1 4 4 2 1 3 3 3 3 4 4 1 1 2 0 2 0 1 2 2 1 3 2 0 1 1 1 2 3 3 4 2 1 1 1 2 3 2 4 3 3 5 3 3 5 4 4 7 8 10 13 17 21 28 32 32 32
3 2 1 2 3 4 5 6 7 7 7 5 4 3 3 2 1 1 1 1 1 2 2 1 2 3 5 1 1 3 2 3 5 4 2 1 2 2 3 1 2 1 2 2 2 1 2 2 1 1 1 2 2 1 1 1 1 2 3 4 4 2 2 2 2 2 3 2 4 3 3 3 4 3 3 5 3 1 4 6 9 14 18 23 28 30 32 33
2 3 3 4 5 6 7 7 8 7 6 4 3 3 1 0 1 1 1 1 0 1 1 1 2 2 3 1 1 3 2 2 5 4 2 2 1 1 1 1 1 2 3 0 0 1 2 2 1 1 2 2 2 2 2 3 2 3 3 3 5 4 2 2 2 2 3 1 4 2 3 3 7 6 5 6 5 4 3 3 7 11 15 20 25 29 33 34
3 4 5 6 6 7 8 8 8 7 5 3 2 2 1 1 1 1 1 2 1 1 1 0 1 1 2 2 1 2 2 1 3 3 1 1 1 0 1 1 1 3 3 1 2 2 1 1 2 2 2 1 3 3 1 2 2 2 3 3 4 5 5 6 4 3 3 1 4 2 3 4 7 3 1 2 6 5 3 6 10 12 14 19 23 27 31 32
4 5 6 7 7 8 8 8 7 5 3 1 0 1 1 1 1 1 1 2 1 1 1 0 1 1 0 1 2 2 1 0 3 3 1 0 1 1 1 1 1 1 1 1 1 1 2 1 1 2 1 0 3 2 3 1 0 0 1 2 3 2 4 6 5 5 6 3 2 1 1 4 3 2 3 2 6 6 4 10 14 13 15 19 22 24 26 27
5 6 6 7 7 7 7 6 5 4 1 2 2 2 1 2 1 1 1 1 0 1 0 0 1 1 0 1 1 1 0 1 2 2 1 0 1 1 1 1 1 0 1 2 0 1 3 2 2 2 2 1 1 1 2 2 1 1 1 2 2 1 3 4 3 2 4 4 2 3 3 4 3 1 4 4 5 6 5 13 15 15 17 19 20 21 24 25
6 7 7 6 7 6 6 6 5 3 2 3 2 1 2 1 0 1 0 1 1 1 1 0 0 1 1 0 1 2 2 1 3 3 0 1 1 1 1 1 1 0 1 1 1 0 3 1 2 1 1 2 1 1 1 3 1 1 1 1 1 1 3 4 2 2 1 4 2 2 5 4 4 2 3 2 1 5 12 16 17 20 24 24 23 25 27 27
6 6 7 7 6 6 5 4 3 2 3 3 1 1 2 0 0 1 0 1 0 0 1 1 1 1 1 1 1 2 2 1 1 2 1 0 1 1 1 1 1 1 2 2 1 1 2 2 2 1 1 3 2 1 3 4 3 1 1 1 1 1 1 1 3 1 3 6 3 3 6 5 3 2 1 5 9 12 13 15 18 24 29 29 28 29 31 31
5 6 6 6 5 4 3 2 1 3 4 2 0 2 1 0 0 1 1 0 1 0 1 1 1 1 1 1 1 1 3 3 1 1 1 1 1 1 1 1 1 1 2 1 1 1 2 4 0 1 0 2 1 2 1 4 4 2 0 1 0 3 2 1 2 4 4 7 5 3 4 5 4 2 3 6 9 11 12 13 17 23 28 29 30 31 31 31
4 5 5 4 3 3 1 1 3 5 4 2 1 1 0 1 1 2 3 1 1 1 1 1 1 1 1 1 1 1 1 2 2 1 1 1 0 2 2 1 1 1 2 1 1 1 0 2 1 1 1 1 1 3 2 2 3 2 1 1 1 2 3 1 1 2 3 6 7 3 3 3 3 2 3 5 7 9 12 12 14 20 26 28 29 30 30 32
3 4 3 3 3 2 1 2 4 4 2 1 1 1 0 1 2 3 4 2 1 1 1 1 1 1 0 1 1 1 1 1 1 1 1 1 1 2 3 3 1 1 1 1 1 1 1 1 2 1 2 2 2 2 1 1 2 2 3 2 1 1 1 2 2 1 2 6 6 5 6 4 2 2 3 6 6 8 12 15 17 23 29 30 29 30 32 33
3 3 2 2 2 1 3 3 4 2 1 0 1 1 1 1 2 3 4 3 1 0 1 1 0 0 0 0 0 0 0 1 1 2 2 1 1 2 3 3 2 1 1 1 1 1 1 2 3 2 3 3 0 2 2 3 1 1 3 2 1 2 1 4 4 1 0 4 4 4 8 5 0 2 3 5 7 11 18 21 22 27 31 31 30 31 32 33
2 1 2 2 2 2 4 3 3 2 0 0 0 1 2 1 2 2 3 3 1 0 1 1 1 1 0 0 1 1 1 2 2 2 2 1 0 2 1 1 1 1 1 1 0 0 1 1 3 5 5 2 2 1 2 3 2 1 1 1 1 1 2 5 5 2 1 2 1 1 6 5 0 4 3 7 11 17 23 25 27 30 31 31 32 33 34 34
2 2 2 3 1 3 3 1 1 1 0 1 1 2 2 2 1 2 3 3 2 1 1 1 1 1 0 1 0 2 2 2 2 1 1 1 0 1 1 1 1 1 2 1 0 1 1 1 2 5 4 2 2 2 1 1 1 1 1 1 1 0 0 2 3 2 2 4 2 4 6 3 3 4 4 11 17 21 24 26 29 30 31 32 33 34 35 35
2 1 2 2 2 4 2 0 0 0 1 0 1 1 1 2 2 1 1 2 2 1 1 1 1 1 1 1 0 1 2 1 1 0 0 1 0 1 1 0 2 1 1 1 0 1 2 1 1 5 5 0 2 1 2 2 1 1 1 2 1 1 3 1 1 1 3 5 5 8 8 3 1 4 11 16 19 22 25 27 28 29 31 33 33 35 36 35
2 1 1 0 2 3 2 2 2 1 1 1 0 0 0 1 2 1 0 1 1 1 1 2 1 2 2 1 1 1 2 2 1 1 1 1 1 1 1 0 2 1 0 1 0 1 2 1 1 3 5 4 4 3 1 2 1 1 1 2 2 2 3 1 2 2 4 3 4 7 9 9 10 13 16 16 18 20 25 28 28 28 31 32 34 37 37 32
1 1 1 0 1 1 1 2 1 1 2 1 1 0 0 1 1 0 1 1 1 1 1 2 2 2 2 1 2 1 1 2 1 1 1 2 1 1 0 0 1 1 1 2 1 0 1 1 3 6 7 7 7 4 2 2 4 6 4 2 2 2 2 2 2 3 3 3 4 8 11 16 18 18 16 17 17 19 23 28 31 31 31 32 36 37 33 28
1 1 1 0 0 1 3 3 1 2 2 1 1 1 0 1 0 0 1 1 1 2 1 1 2 2 1 1 1 1 1 1 1 1 2 2 0 0 1 1 1 1 1 1 1 1 1 2 2 4 8 9 8 7 1 0 6 9 7 5 1 3 3 4 5 6 4 4 6 7 10 15 19 19 17 17 18 19 24 29 32 32 33 35 38 35 29 29
0 2 1 1 0 1 1 2 2 3 3 1 1 1 0 1 1 0 2 2 1 2 1 1 2 3 2 2 0 1 1 1 2 2 1 1 1 1 0 1 1 0 1 1 1 1 2 3 1 0 7 9 8 9 6 2 5 6 5 6 3 3 5 5 7 8 5 5 11 14 16 19 18 17 16 17 20 23 28 32 32 32 36 39 37 32 31 35
1 1 2 2 1 1 1 1 2 3 3 2 0 1 1 1 1 0 1 2 1 1 1 1 1 2 3 2 1 2 2 2 2 2 1 1 1 1 0 1 1 1 1 1 2 2 1 2 2 1 7 10 6 5 3 1 2 2 2 4 3 2 6 7 7 9 8 10 15 18 21 19 12 12 16 20 24 27 29 31 33 34 37 38 34 32 35 41
1 1 2 4 3 3 3 2 2 3 1 2 0 0 1 2 1 0 1 2 0 1 2 2 0 1 1 2 4 4 2 1 2 2 2 1 1 1 1 0 2 2 1 1 2 2 1 1 2 1 5 6 1 2 1 1 3 2 1 3 4 2 3 3 4 7 8 10 14 16 17 13 8 15 22 23 24 25 27 31 35 35 37 36 33 33 39 45
2 2 2 3 2 2 1 2 2 1 0 0 0 0 1 1 1 0 1 2 2 1 3 3 1 2 1 2 5 6 3 1 3 3 2 2 2 1 0 1 1 2 1 1 0 1 0 1 1 1 5 4 2 1 3 1 1 2 4 8 8 5 4 3 5 8 9 12 14 13 10 8 12 21 26 25 26 25 26 31 35 36 37 35 31 35 42 45
2 2 2 2 1 1 1 2 2 1 0 0 1 1 1 1 2 1 1 2 2 2 3 3 2 2 1 2 4 4 3 2 2 3 1 2 3 1 1 1 1 1 2 2 0 1 0 2 1 1 4 3 1 5 5 1 3 3 4 8 8 6 6 7 8 11 13 11 10 9 8 10 17 22 23 25 28 28 29 32 35 37 35 31 32 39 44 45
Wind_Direction
91 94 98 102 105 106 110 114 114 112 113 116 117 114 110 109 108 110 110 102 91 73 68 87 86 80 79 79 75 73 70 53 50 92 71 46 36 28 35 56 72 75 61 33 22 16 26 31 29 41 34 59 76 73 72 61 43 42 170 271 280 184 171 172 175 165 69 122 157 174 188 201 193 195 219 242 236 235 245 243 241 239 238 238 237 239 237 238
91 96 103 107 107 105 107 110 115 115 116 120 119 115 111 109 110 112 111 99 80 60 53 62 66 67 72 74 68 66 60 47 56 68 56 43 37 31 31 61 70 50 35 11 9 13 36 28 19 32 49 79 71 62 62 44 34 45 219 262 338 74 82 28 142 139 46 112 149 170 188 205 212 188 208 238 232 224 242 247 242 243 243 239 239 238 238 241
93 97 104 110 111 106 105 107 113 116 118 126 127 123 119 117 121 123 116 97 74 61 58 62 60 38 47 39 40 56 43 33 46 46 46 47 48 42 33 63 80 292 311 340 360 18 43 25 14 32 85 85 67 74 63 31 36 53 295 273 46 79 85 73 140 123 75 120 141 163 187 207 223 198 200 234 239 220 235 239 228 236 243 240 239 239 238 241
97 98 101 110 113 108 105 101 102 104 102 100 124 170 164 149 146 143 129 102 78 61 55 64 67 36 357 337 335 348 10 23 30 25 33 43 48 49 37 44 53 282 291 332 1 18 36 21 15 49 94 83 54 74 51 15 38 53 343 7 65 120 96 96 163 142 106 133 144 156 175 211 226 215 211 223 249 239 236 243 237 239 246 245 243 243 240 242
94 100 102 108 112 109 100 89 80 73 63 48 26 273 223 197 174 161 150 121 85 60 42 48 54 36 3 338 323 290 283 333 17 14 26 36 42 50 44 40 34 315 283 341 11 20 33 15 13 48 80 69 23 63 42 15 54 65 34 47 68 145 41 106 164 169 141 137 143 160 176 215 219 221 222 215 235 248 246 260 260 250 250 247 244 245 242 241
88 98 107 109 109 106 92 82 70 50 41 31 20 1 307 221 193 182 174 167 97 42 26 29 33 27 12 5 3 354 216 124 15 12 21 28 35 39 44 38 23 350 265 85 39 16 33 15 21 57 71 63 23 47 47 17 39 67 83 82 65 26 71 133 164 169 156 153 161 178 208 221 210 234 233 225 237 248 259 271 272 257 249 244 241 242 241 241
80 89 109 118 117 108 88 83 78 44 20 13 9 349 327 220 197 202 197 224 288 341 5 11 10 15 18 14 21 49 83 84 24 15 19 21 27 28 32 28 15 350 259 190 211 352 33 26 57 85 84 81 57 61 56 41 38 55 108 107 98 103 125 145 165 174 164 185 206 216 238 223 216 255 249 241 250 255 261 266 265 260 254 247 241 239 242 245
77 81 98 124 140 125 103 98 95 64 12 8 5 338 314 276 237 247 247 267 301 330 342 356 3 3 3 4 24 58 65 59 27 24 21 15 16 18 21 15 7 6 274 217 226 303 22 30 79 90 75 77 89 81 59 67 59 54 112 141 121 112 146 156 167 186 187 222 238 241 247 234 235 264 269 264 270 271 267 264 261 259 257 251 245 243 245 248
86 88 97 123 148 136 116 111 98 61 18 24 11 340 316 2 63 40 33 345 350 350 332 357 13 6 360 5 41 63 46 37 35 31 25 16 10 6 9 10 17 51 105 198 200 231 66 67 104 119 123 109 105 94 37 331 54 63 120 138 137 130 162 169 174 201 213 241 264 260 255 251 255 275 275 272 278 281 273 265 258 255 253 252 250 249 249 252
103 100 112 126 137 131 124 120 84 27 13 21 8 354 51 84 76 70 62 44 18 345 335 11 19 12 15 26 55 76 44 38 43 35 31 27 14 357 9 33 53 65 65 122 142 118 101 107 117 118 123 112 97 71 28 4 95 108 119 119 121 128 170 185 198 220 240 269 287 280 276 266 251 270 270 270 276 276 279 272 261 254 251 251 250 251 252 254
123 113 129 145 142 133 129 119 38 30 20 22 19 30 92 85 70 61 48 34 9 348 4 27 7 6 10 53 79 97 74 55 52 44 36 30 25 23 36 45 54 59 44 61 119 106 92 103 123 118 110 116 103 71 69 94 106 113 121 128 118 87 230 220 235 250 259 284 316 300 284 255 185 218 254 263 274 279 281 275 268 261 256 253 251 251 252 254
134 123 136 155 154 149 136 96 41 42 34 42 56 85 111 79 58 50 37 27 7 356 21 10 2 9 23 68 82 98 91 69 62 51 39 31 34 38 42 43 47 57 48 73 104 94 90 96 113 118 115 131 126 84 97 104 107 112 114 157 183 219 236 206 216 247 242 278 342 319 287 234 178 221 252 262 273 284 283 277 271 262 259 257 252 250 252 256
134 128 140 153 158 170 160 99 56 41 37 50 68 99 173 92 46 46 38 27 8 5 17 4 6 14 44 73 77 90 93 69 62 52 36 33 38 37 41 40 37 55 54 72 94 81 72 69 63 121 119 120 113 117 116 101 102 118 78 333 272 243 234 146 153 190 221 263 359 334 299 258 191 217 246 264 265 277 280 279 278 267 259 255 252 252 254 260
138 136 146 151 150 168 146 98 51 25 15 31 49 58 166 231 63 60 41 24 12 17 18 18 15 7 58 82 84 89 94 78 70 62 44 38 36 29 30 34 34 49 56 63 82 74 71 73 92 111 104 102 115 122 113 86 70 96 315 301 288 295 339 114 127 188 220 219 134 259 284 284 237 209 230 260 260 267 270 270 274 270 262 257 255 255 258 264
157 159 163 157 147 154 129 100 37 14 4 17 28 31 21 291 165 113 20 10 14 23 24 32 35 49 82 89 92 79 76 96 82 76 68 45 31 22 18 25 30 43 64 72 76 77 81 85 91 91 90 104 122 126 98 87 60 23 291 257 130 301 307 124 113 220 274 125 159 227 274 284 295 239 217 250 255 261 266 267 268 268 267 263 260 259 263 269
147 179 190 176 150 163 139 106 19 14 20 31 37 34 32 66 177 222 338 351 6 23 28 42 46 65 84 89 80 56 48 125 147 172 80 40 22 16 10 9 19 37 60 70 73 68 55 73 89 92 96 109 121 123 48 194 196 103 292 307 301 280 307 333 105 96 325 98 193 231 274 286 291 238 228 259 265 270 270 268 266 266 268 267 266 265 267 274
95 177 209 205 209 261 200 221 7 22 28 35 48 37 44 69 131 272 324 340 343 359 20 31 18 38 68 92 76 39 51 159 285 294 16 8 7 10 9 8 1 3 23 43 61 28 14 64 95 93 86 83 89 314 300 290 295 98 250 288 279 258 291 299 124 100 35 246 234 229 249 271 272 270 276 274 273 273 267 268 269 267 267 268 269 271 273 277
31 321 216 217 253 283 247 283 9 27 27 38 58 43 46 55 22 336 344 332 320 314 332 24 360 15 69 86 105 59 72 44 11 350 333 325 343 351 356 4 353 337 311 296 349 5 22 70 102 113 97 108 159 214 284 326 337 312 293 290 303 265 243 270 276 66 38 256 258 250 253 269 275 279 281 274 269 268 264 268 272 270 269 269 271 274 277 280
352 325 237 224 270 300 266 283 17 15 17 52 64 49 37 27 5 354 357 348 350 279 217 28 31 95 81 88 125 94 60 36 23 4 339 315 311 313 315 323 332 343 329 259 359 18 25 75 125 191 182 146 102 346 306 10 359 300 308 295 297 290 273 276 291 53 20 283 266 258 265 279 284 288 290 286 271 263 267 271 272 271 271 272 276 280 282 283
344 334 291 250 301 318 319 302 290 290 339 68 56 43 37 16 3 355 7 34 79 88 101 66 66 88 78 116 181 26 349 6 16 9 347 316 297 279 300 319 321 357 29 321 342 21 9 255 219 282 28 96 93 71 77 81 75 141 282 281 272 277 286 294 8 87 63 295 271 258 281 285 285 289 295 300 287 266 271 271 269 269 271 279 284 288 289 291
359 4 27 345 323 329 344 332 284 257 154 83 60 42 32 18 13 359 21 55 81 87 92 87 82 84 74 69 188 287 285 330 5 359 354 348 319 269 300 351 349 23 35 346 297 17 334 257 272 59 75 94 105 101 103 107 85 61 259 284 277 256 273 299 70 119 116 312 280 292 303 287 286 296 305 310 298 279 284 276 277 280 281 288 293 299 304 306
51 92 94 74 46 20 1 344 75 124 117 83 52 23 33 55 63 30 27 84 90 88 90 85 82 81 73 66 52 8 307 321 341 343 356 1 356 336 327 35 42 10 28 340 271 284 253 241 75 92 108 101 102 113 108 102 101 282 246 275 285 270 276 283 102 134 177 269 294 338 320 289 289 304 317 332 310 293 298 281 281 284 282 292 304 312 314 315
110 117 111 99 71 40 18 357 153 128 104 50 36 41 65 87 66 26 34 118 97 78 81 78 83 77 66 58 33 17 3 354 336 344 358 360 41 49 43 65 63 80 60 355 287 283 285 66 95 130 147 123 112 122 123 118 194 225 243 273 285 333 315 277 96 15 263 253 290 305 288 279 290 308 2 66 359 307 302 285 277 275 275 287 300 303 311 321
127 121 115 102 84 69 60 68 100 109 92 65 59 77 91 88 20 358 27 103 82 80 80 59 61 68 59 36 7 9 32 42 14 357 2 20 67 55 59 77 99 196 104 34 263 261 301 63 122 161 179 167 145 146 176 242 261 223 220 249 278 303 295 271 323 321 288 235 270 299 276 253 281 7 338 81 349 305 307 300 287 275 272 272 274 290 309 324
122 115 110 109 106 92 77 75 84 94 86 56 43 58 66 356 339 335 10 94 68 30 61 36 40 54 49 4 348 348 4 43 17 0 13 37 50 61 95 92 127 202 114 105 235 262 298 108 159 165 156 171 176 199 202 231 281 263 216 233 275 304 283 281 312 323 299 220 100 329 305 246 114 350 313 352 347 321 313 297 293 289 290 278 268 280 294 308
115 107 103 113 126 119 100 78 72 78 59 31 16 3 352 341 338 334 13 79 184 343 330 292 15 17 7 349 346 342 257 354 344 347 18 35 39 87 133 100 40 77 135 146 250 286 109 126 175 184 159 158 199 250 197 183 269 299 181 183 191 271 282 295 313 319 304 306 15 346 298 296 316 356 15 347 329 322 301 270 284 286 282 272 273 290 301 309
121 110 115 111 109 112 111 80 58 45 22 20 3 342 339 339 332 321 343 27 184 351 337 290 274 329 355 352 360 5 299 317 311 328 18 20 30 80 181 133 99 130 144 179 283 144 126 144 183 177 164 185 229 255 180 175 242 299 115 105 93 275 288 294 292 274 289 307 304 186 275 282 296 13 99 320 322 352 16 10 314 322 337 330 321 322 326 333
135 127 126 101 87 80 73 57 39 16 356 352 343 333 320 322 325 318 317 243 357 25 356 338 198 192 356 347 354 17 305 323 314 322 11 9 21 43 251 215 178 122 140 216 275 70 125 178 192 177 182 223 237 342 160 183 232 13 122 87 345 297 288 256 260 260 277 296 238 144 140 263 284 18 122 240 10 22 12 14 22 10 359 352 351 354 356 0
149 143 125 84 64 56 47 34 18 354 340 335 331 327 316 319 319 317 156 224 322 93 109 359 190 288 339 333 290 339 329 347 354 349 360 8 15 35 183 161 134 112 116 227 275 347 95 210 200 188 209 237 163 55 159 194 229 72 131 172 165 161 199 184 253 249 190 262 229 115 32 292 302 337 88 31 20 13 353 358 15 6 355 355 5 7 6 6
164 156 128 20 24 22 9 8 359 343 335 326 323 328 323 324 319 164 223 256 358 31 260 300 266 310 337 332 247 3 18 356 1 358 10 58 23 51 101 120 127 132 137 237 261 107 84 57 185 214 254 11 84 75 86 201 17 89 197 251 217 172 151 160 207 203 216 239 127 75 357 316 312 323 66 54 42 6 336 348 7 5 1 3 7 7 4 1
179 199 259 316 340 339 338 346 342 338 332 318 317 329 319 327 50 142 254 240 85 357 302 333 332 344 5 2 303 8 25 2 8 10 31 53 24 71 110 147 140 188 227 207 216 150 122 190 176 215 279 87 114 126 126 163 279 247 247 281 279 239 174 170 166 181 253 265 98 65 328 302 276 261 32 38 80 89 321 335 358 1 359 1 3 1 358 355
216 250 272 295 307 315 323 328 332 335 329 314 313 322 309 265 228 207 280 294 26 344 3 24 353 17 24 301 286 353 334 345 17 25 33 8 327 80 38 302 323 279 273 207 216 224 189 191 89 67 140 153 226 214 160 170 193 239 261 297 301 304 287 267 267 220 265 13 98 59 345 276 251 260 332 2 42 35 332 345 3 359 355 355 357 354 352 352
256 270 283 293 298 305 311 317 327 334 326 311 307 340 44 119 231 194 284 312 353 17 29 332 331 6 324 287 302 342 277 275 12 16 51 8 302 60 35 339 328 285 281 359 330 294 264 135 125 165 150 153 241 248 247 185 179 244 286 312 302 321 315 295 304 286 287 50 108 27 346 274 259 266 359 50 68 44 10 27 15 7 1 354 352 350 349 349
268 281 288 294 298 302 307 315 326 333 321 284 324 14 16 257 235 152 267 282 322 24 43 328 323 319 307 344 346 315 251 129 14 343 318 11 271 253 139 186 276 285 230 271 304 302 278 256 144 174 114 120 227 279 338 334 291 282 14 326 282 308 299 293 315 304 302 343 124 232 299 243 245 123 154 159 88 84 47 26 15 10 5 353 350 349 346 345
273 285 290 296 303 305 311 319 327 331 283 173 83 56 227 249 243 189 256 289 21 335 123 119 313 294 112 54 2 356 13 67 21 341 309 277 271 279 64 138 197 253 213 255 331 109 257 266 62 29 4 4 215 59 12 302 265 104 84 275 266 348 289 278 310 317 314 320 221 210 233 236 263 129 160 181 141 124 38 18 10 4 0 351 347 347 344 343
282 293 299 305 310 313 319 321 325 320 210 165 83 64 210 256 291 184 199 40 46 293 275 202 277 303 324 5 58 54 28 345 350 341 252 205 276 246 51 57 84 15 9 298 277 155 269 262 95 64 54 63 9 36 23 324 322 149 212 260 89 14 299 273 284 106 196 272 242 214 249 252 284 276 165 163 87 45 18 9 5 1 356 350 347 346 343 343
289 302 308 308 312 319 321 320 315 254 185 149 108 233 234 290 64 199 26 18 211 230 306 295 4 356 310 300 3 34 351 324 354 344 311 223 261 167 127 65 89 12 23 327 261 131 295 281 119 135 144 86 28 43 85 34 357 263 239 62 100 239 282 265 279 283 249 264 251 210 256 274 294 285 29 17 8 11 5 358 360 358 353 348 346 343 342 342
286 302 306 307 318 328 322 309 254 182 157 127 213 255 248 234 207 236 208 234 263 234 272 255 342 16 237 265 338 35 341 333 22 352 304 253 145 122 80 67 113 31 30 325 271 73 292 278 79 80 238 80 62 229 139 70 31 353 304 89 354 260 249 167 266 304 295 281 272 218 259 275 232 216 2 7 6 0 351 354 360 356 350 344 341 339 339 339
289 307 311 318 332 340 330 237 168 157 133 106 252 247 207 249 234 203 200 211 267 224 234 252 322 8 165 209 317 36 2 341 4 344 283 271 64 96 54 23 124 89 35 2 304 353 280 286 309 145 165 10 177 217 232 124 92 58 188 172 39 285 280 283 276 297 284 282 287 280 293 283 199 167 1 9 13 356 349 355 357 351 346 340 338 337 336 335
291 307 311 327 342 359 128 148 146 142 109 99 223 191 159 250 206 196 206 195 173 199 241 221 205 277 253 135 319 11 46 315 275 262 259 302 342 82 57 15 54 112 16 356 294 268 178 243 278 170 165 272 241 190 278 195 147 173 197 205 178 172 279 295 249 224 272 282 288 283 283 287 143 129 27 25 14 356 356 357 351 347 342 337 337 336 334 333
286 299 295 316 343 88 149 127 98 84 76 136 224 199 188 207 181 193 205 188 156 80 176 167 147 282 7 60 70 107 229 242 221 243 249 211 272 41 53 18 18 89 246 230 205 246 222 226 266 277 256 266 321 68 329 310 310 253 239 241 210 176 243 273 260 171 238 273 283 290 286 290 86 116 60 35 13 2 1 354 347 342 337 334 335 335 333 333
277 276 296 315 312 177 152 105 51 42 115 175 213 201 187 181 179 187 193 191 192 99 140 108 56 103 119 357 67 141 240 255 200 220 256 216 348 8 39 12 2 177 224 271 252 307 315 259 263 271 271 298 41 29 317 314 320 324 319 352 121 186 242 268 280 306 199 248 318 297 271 280 107 123 81 28 12 4 358 352 343 336 333 332 332 332 333 332
271 261 296 312 253 177 155 76 20 33 86 113 128 193 188 176 181 175 182 194 192 145 127 98 119 161 96 24 101 176 213 233 202 181 261 250 356 11 295 253 220 203 226 280 26 119 197 248 264 266 266 115 127 181 209 277 243 216 78 102 182 199 16 286 296 340 276 251 251 263 261 253 138 132 39 13 7 358 352 347 339 332 330 331 331 331 332 330
276 268 291 307 203 183 177 184 190 207 292 172 116 177 198 195 202 192 198 211 183 153 113 75 94 100 84 77 188 196 209 237 236 104 55 259 221 46 2 175 177 209 242 242 101 138 209 212 288 290 296 314 150 188 194 192 210 237 159 122 169 84 78 56 150 115 267 242 231 260 268 248 196 322 343 355 354 349 345 341 335 331 329 329 330 330 329 329
277 263 260 263 196 197 188 156 151 138 195 217 207 282 216 178 190 201 170 142 133 147 106 70 95 111 106 141 185 195 226 241 275 19 46 267 227 107 24 107 186 228 355 78 79 231 259 267 231 283 301 298 304 326 322 323 342 267 177 151 193 155 133 220 249 237 255 233 208 246 271 289 303 315 328 339 344 343 339 335 332 330 329 329 329 327 327 330
243 227 335 354 181 181 135 123 142 144 148 203 261 222 167 139 135 200 187 139 116 141 111 96 130 133 119 197 229 243 221 206 255 333 299 251 232 109 321 258 168 195 111 68 68 142 323 287 239 251 258 269 300 334 54 8 305 291 296 276 196 150 155 222 257 253 270 285 246 238 262 286 301 313 325 337 342 338 332 331 332 331 331 331 329 326 328 332
234 213 338 17 87 75 92 90 69 111 136 184 216 155 238 266 339 149 174 153 138 163 141 119 175 189 159 159 245 265 209 181 215 268 250 237 255 5 253 187 135 204 171 71 34 89 252 264 247 249 252 262 297 313 337 183 280 283 292 291 229 142 161 189 222 255 295 312 282 264 267 283 300 315 328 338 338 333 331 331 331 331 331 330 328 328 331 333
322 199 198 178 141 74 100 59 52 97 107 107 182 147 221 280 310 207 150 116 133 184 197 158 191 219 196 138 149 264 252 229 210 212 233 250 284 289 159 137 163 275 109 144 18 52 251 266 34 39 270 276 288 291 285 258 261 264 271 288 292 159 175 196 234 261 273 272 282 294 297 295 301 314 328 337 335 331 330 329 330 331 329 328 329 331 332 334
8 143 152 169 157 131 146 71 101 124 93 55 136 186 200 219 266 186 151 137 111 138 220 238 234 218 193 174 203 241 242 247 255 247 196 172 238 247 213 135 153 76 39 81 34 32 238 254 71 93 285 294 297 297 306 187 236 245 251 297 319 206 211 219 247 271 265 255 270 288 295 295 302 322 331 333 332 329 328 329 331 329 327 328 328 329 332 334
246 205 172 165 131 106 109 103 134 144 79 41 159 184 167 199 234 282 166 191 184 104 194 232 258 115 153 187 209 232 245 250 293 287 185 176 268 231 224 258 134 92 22 59 57 25 258 285 70 103 286 298 349 93 71 239 260 249 109 19 5 336 250 224 261 284 277 268 276 287 292 293 322 337 331 328 330 331 333 333 331 328 327 327 325 329 333 332
246 250 204 165 124 83 76 87 107 130 64 57 167 168 162 200 232 263 174 202 223 176 189 203 139 113 82 197 217 249 297 324 293 284 221 226 269 249 336 310 165 142 93 97 39 352 284 278 92 63 301 292 124 95 317 303 204 155 65 23 7 4 359 327 301 300 297 296 299 301 299 308 334 336 330 328 331 335 337 335 329 325 324 323 325 331 331 329
252 240 216 192 135 57 62 91 83 43 324 156 146 162 189 197 182 184 228 217 216 214 213 209 171 160 248 219 222 263 322 333 296 301 276 238 236 248 11 95 120 133 147 154 138 18 273 254 135 22 296 272 49 334 318 157 163 159 78 30 2 358 353 337 321 311 305 304 312 316 318 326 333 335 332 331 334 337 338 333 326 322 322 324 328 330 329 328